Weather History for KABR - July, 2013

Change the Weather History Date:

Tuesday, July 9, 2013

  Actual Average Record
Temperature  
Mean Temperature 73 °F 71 °F  
Max Temperature 84 °F 83 °F 115 °F (1936)
Min Temperature 61 °F 59 °F 42 °F (1981)
Degree Days  
Heating Degree Days 0 0  
Month to date heating degree days 0 8  
Since 1 June heating degree days 81 84  
Since 1 July heating degree days 0 8  
Cooling Degree Days 8 6  
Month to date cooling degree days 67 54  
Year to date cooling degree days 184 169  
Since 1 June cooling degree days 163 146  
Growing Degree Days 23 (Base 50)    
Moisture  
Dew Point 63 °F    
Average Humidity 74    
Maximum Humidity 100    
Minimum Humidity 47    
Precipitation  
Precipitation 2.10 in 0.10 in 2.44 in (1926)
Month to date precipitation 2.25 0.96  
Year to date precipitation 12.97 11.80  
Sea Level Pressure  
Sea Level Pressure 29.91 in    
Wind  
Wind Speed 10 mph (NW)    
Max Wind Speed 38 mph    
Max Gust Speed 47 mph    
Visibility 8 miles    
Events Fog , Rain , Thunderstorm    
T = Trace of Precipitation, MM = Missing Value Source: NWS Daily Summary

Daily Weather History Graph

Daily Weather History Graph

Search for Another Location

Airport or City:

Trip Planner

Search our weather history database for the weather conditions in past years. The results will help you decide how hot, cold, wet, or windy it might be!

Date:

Astronomy

Jul. 09, 2013 Rise Set
Actual Time 5:54 AM CDT 9:22 PM CDT
Civil Twilight 5:17 AM CDT 9:59 PM CDT
Nautical Twilight 4:28 AM CDT 10:48 PM CDT
Astronomical Twilight 3:25 AM CDT 11:50 PM CDT
Moon 7:27 AM CDT (7/9) 9:52 PM CDT (7/9)
Length of Visible Light 16h 41m
Length of Day
15h 28m
New Moon, 2% of the Moon is Illuminated
Jul 9
New Moon
Jul 15
First Quarter
Jul 22
Full
Jul 29
Last Quarter
Aug 6
New

Hourly Weather History & Observations

Time (CDT) Temp. Heat Index Dew Point Humidity Pressure Visibility Wind Dir Wind Speed Gust Speed Precip Events Conditions
12:10 AM 71.6 °F - 66.2 °F 83% 29.90 in 10.0 mi NE 5.8 mph - 0.01 in Rain , Thunderstorm Light Rain
12:44 AM 71.6 °F - 66.2 °F 83% 29.87 in 10.0 mi ENE 4.6 mph - 0.01 in Thunderstorm Overcast
12:53 AM 71.1 °F - 68.0 °F 90% 29.83 in 8.0 mi East 6.9 mph - 0.03 in Rain , Thunderstorm Light Rain
1:15 AM 71.6 °F - 66.2 °F 83% 29.84 in 9.0 mi ENE 8.1 mph - 0.01 in Rain Light Rain
1:39 AM 71.6 °F - 66.2 °F 83% 29.84 in 10.0 mi East 3.5 mph - 0.02 in Rain , Thunderstorm Light Thunderstorms and Rain
1:53 AM 71.1 °F - 66.0 °F 84% 29.84 in 9.0 mi NW 25.3 mph 35.7 mph 0.02 in Rain , Thunderstorm Light Thunderstorms and Rain
1:59 AM 64.4 °F - 62.6 °F 94% 29.88 in 1.5 mi NW 36.8 mph 47.2 mph 0.09 in Rain , Thunderstorm Heavy Thunderstorms and Rain
2:02 AM 62.6 °F - 62.6 °F 100% 29.90 in 1.0 mi NW 31.1 mph 47.2 mph 0.17 in Rain , Thunderstorm Heavy Thunderstorms and Rain
2:05 AM 62.6 °F - 62.6 °F 100% 29.90 in 0.8 mi NNW 38.0 mph 47.2 mph 0.25 in Rain , Thunderstorm Heavy Thunderstorms and Rain
2:16 AM 62.6 °F - 62.6 °F 100% 29.89 in 0.5 mi North 26.5 mph 47.2 mph 0.87 in Fog , Rain , Thunderstorm Heavy Thunderstorms and Rain
2:26 AM 62.6 °F - 62.6 °F 100% 29.93 in 1.0 mi North 13.8 mph 38.0 mph 1.38 in Rain , Thunderstorm Heavy Thunderstorms and Rain
2:32 AM 62.6 °F - 62.6 °F 100% 29.92 in 2.0 mi NNE 13.8 mph - 1.48 in Rain , Thunderstorm Heavy Thunderstorms and Rain
2:51 AM 64.4 °F - 62.6 °F 94% 29.96 in 10.0 mi WNW 17.3 mph - 1.69 in Rain , Thunderstorm Light Thunderstorms and Rain
2:53 AM 64.0 °F - 62.1 °F 93% 29.95 in 9.0 mi WNW 16.1 mph - 1.69 in Rain , Thunderstorm Light Thunderstorms and Rain
2:58 AM 64.4 °F - 62.6 °F 94% 29.97 in 1.8 mi WNW 18.4 mph - 0.11 in Rain , Thunderstorm Heavy Thunderstorms and Rain
3:02 AM 64.4 °F - 64.4 °F 100% 29.94 in 1.2 mi WNW 18.4 mph - 0.23 in Rain , Thunderstorm Heavy Thunderstorms and Rain
3:06 AM 64.4 °F - 64.4 °F 100% 29.92 in 1.5 mi NW 12.7 mph 24.2 mph 0.29 in Rain , Thunderstorm Heavy Thunderstorms and Rain
3:11 AM 64.4 °F - 64.4 °F 100% 29.91 in 3.0 mi West 12.7 mph - 0.31 in Rain , Thunderstorm Rain
3:22 AM 64.4 °F - 64.4 °F 100% 29.92 in 10.0 mi NW 9.2 mph - 0.33 in Rain Light Rain
3:53 AM 64.0 °F - 64.0 °F 100% 29.87 in 10.0 mi South 4.6 mph - 0.35 in Rain , Thunderstorm Light Rain
4:32 AM 64.4 °F - 64.4 °F 100% 29.81 in 10.0 mi South 8.1 mph - 0.04 in Rain Light Rain
4:53 AM 64.0 °F - 64.0 °F 100% 29.80 in 10.0 mi South 6.9 mph - 0.04 in   Scattered Clouds
5:07 AM 64.4 °F - 64.4 °F 100% 29.83 in 10.0 mi SSW 6.9 mph - N/A   Mostly Cloudy
5:23 AM 64.4 °F - 62.6 °F 94% 29.82 in 10.0 mi WSW 4.6 mph - N/A   Scattered Clouds
5:53 AM 63.0 °F - 63.0 °F 100% 29.80 in 10.0 mi WSW 8.1 mph - N/A   Clear
6:53 AM 62.1 °F - 62.1 °F 100% 29.84 in 10.0 mi WSW 4.6 mph - N/A   Clear
7:49 AM 66.2 °F - 64.4 °F 94% 29.91 in 10.0 mi West 11.5 mph - N/A   Mostly Cloudy
7:50 AM 64.9 °F - 64.0 °F 97% 29.89 in 10.0 mi West 11.5 mph - N/A   Mostly Cloudy
8:17 AM 66.2 °F - 62.6 °F 88% 29.92 in 10.0 mi WNW 9.2 mph - N/A   Overcast
8:33 AM 66.2 °F - 62.6 °F 88% 29.92 in 10.0 mi West 9.2 mph - N/A   Scattered Clouds
8:53 AM 69.1 °F - 63.0 °F 81% 29.89 in 10.0 mi WNW 9.2 mph - N/A   Clear
9:53 AM 71.1 °F - 61.0 °F 70% 29.90 in 10.0 mi NW 15.0 mph - N/A   Clear
10:53 AM 75.0 °F - 62.1 °F 64% 29.90 in 10.0 mi WNW 13.8 mph - N/A   Clear
11:53 AM 77.0 °F - 62.1 °F 60% 29.91 in 10.0 mi NW 10.4 mph - N/A   Clear
12:53 PM 80.1 °F 81.5 °F 63.0 °F 56% 29.91 in 10.0 mi NW 9.2 mph - N/A   Clear
1:53 PM 82.0 °F 82.7 °F 61.0 °F 49% 29.91 in 10.0 mi NW 15.0 mph 23.0 mph N/A   Clear
2:53 PM 82.9 °F 83.7 °F 62.1 °F 49% 29.92 in 10.0 mi NW 18.4 mph 25.3 mph N/A   Clear
3:53 PM 81.0 °F 82.2 °F 63.0 °F 54% 29.94 in 10.0 mi NNW 16.1 mph 25.3 mph N/A   Clear
4:53 PM 81.0 °F 82.5 °F 64.0 °F 56% 29.94 in 10.0 mi North 11.5 mph - N/A   Scattered Clouds
5:53 PM 78.1 °F - 64.9 °F 64% 29.96 in 10.0 mi North 10.4 mph - N/A   Mostly Cloudy
6:53 PM 78.1 °F - 62.1 °F 58% 29.96 in 10.0 mi NNE 5.8 mph - N/A   Clear
7:32 PM 75.2 °F - 62.6 °F 65% 30.01 in 10.0 mi North 23.0 mph 27.6 mph N/A Thunderstorm Mostly Cloudy
7:53 PM 68.0 °F - 60.1 °F 76% 30.00 in 10.0 mi North 8.1 mph - 0.00 in Thunderstorm Scattered Clouds
8:01 PM 68.0 °F - 60.8 °F 78% 30.02 in 10.0 mi North 9.2 mph - N/A   Partly Cloudy
8:53 PM 68.0 °F - 63.0 °F 84% 30.00 in 10.0 mi North 6.9 mph - N/A   Mostly Cloudy
9:53 PM 66.9 °F - 64.0 °F 90% 30.03 in 10.0 mi North 5.8 mph - N/A   Clear
10:53 PM 64.9 °F - 61.0 °F 87% 30.05 in 10.0 mi North 4.6 mph - N/A   Clear
11:53 PM 63.0 °F - 60.1 °F 90% 30.07 in 10.0 mi North 5.8 mph - N/A   Clear